CZ-4 DEB

Satellite information

Favourite Embed

Satellite Type and Status

DEBRISIN ORBIT

Key statistics

Satellite CZ-4 DEB at a glance.

Uptime

9558

Days in orbit

Revolutions

≈ 14.6

Per day

Orbit

SSO

Sun Synchronous Orbit

Inclination

99.3

Latest

Satellite identification and parameters

Extended collection of information and parameters for CZ-4 DEB.

Object identification

Identified? True

Debris? True

Object name: CZ-4 DEB

International designator: 1999-057AC

Object number (NORAD): 26140

Object ID (CCSDS): 26140

Country: PEOPLES REPUBLIC OF CHINA (PRC)

Current information (Y/N): Y

RCS size: SMALL

Orbital parameters

Period: 98.401 minutes

Inclination: 99.3379 deg

SMA: 7060.346 km

Apoapsis: 778.623 km

Periapsis: 585.8 km

RAAN: 254.8013 deg

Eccentricy: 0.0136553

Argument of periapsis: 131.4369 deg

Mean anomaly: 353.0205 deg

Mean motion: 14.6340234 rev/day

Mean motion (dot): 0.00013097 rev/day2

B* drag term: 0.00221933 1/REarth

Two-line elements (TLE)

Creation date: Dec. 12, 2025, 10:14 a.m.

Reference frame: TEME

Reference center: EARTH

Epoch: Dec. 12, 2025, 6:14 a.m. UTC

TLE line 0: 0 CZ-4 DEB

TLE line 1: 1 26140U 99057AC 25346.26014284 .00013097 00000-0 22193-2 0 9999

TLE line 2: 2 26140 99.3379 254.8013 0136553 131.4369 353.0205 14.63402340346668

Live tracking on map

Real-time ground track for satellite CZ-4 DEB.

In-orbit conjunctions

A list of the most updated potential collisions computed for object CZ-4 DEB.

Target Orbit TCA Probability of collision Miss distance Type
COSMOS 1867 LEO 2025-03-10 14:32:09 0.0001300866 287.0 (m) PAYLOAD
CZ-4B R/B SSO 2024-10-23 07:52:27 0.0001294705 77.0 (m) ROCKET BODY

Associated space launch

The CBERS (China Brazil Earth Resources Satellite) or ZY 1 (Zi Yuan) satellites are designed for global coverage and include cameras to make optical observations and a data collecting system to gather data on the environment. They are unique systems due to the use of on-board sensors which combine features that are especially designed to resolve the broad range of space and time scales involved in the monitoring and preservation of the ecosystem. They are operated jointly by the China Centre for Resources Satellite Data and Application (CRESDA) and the Brazilian INPE (Instituto Nacional de Pesquisas Espaciais, National Institute of Space Research).

CZ-4 DEB was lifted into orbit during the mission ‘Long March 4B | Zi Yuan 1-1’, on board a Long March 4B space rocket.

The launch took place on Oct. 14, 1999, 3:15 a.m. from Launch Complex 7.

For more information about the launch, click the button.

Launch to space Long March 4B | Zi Yuan 1-1
Long March 4B | Zi Yuan 1-1

Agency: N/A

Status: Launch Successful

Launch date: Oct. 14, 1999, 3:15 a.m. UTC

Rocket: Long March 4B

Launch pad: Launch Complex 7

Location: Taiyuan Satellite Launch Center, People's Republic of China

...

Latest news about this satellite

There are no fresh news available about this satellite. Check back as we update our databases every day.


Newsletter sign-up

Weekly statistics, charts and insights to help you stay on top of the space industry.